NOAA 16 DEB, 42339

Orbit data source: Space-Track

NOAA 16 DEB, 42339 is space debris in SSO originally from a launch on Thu, 21 Sep 2000 UTC launched from the Air Force Western Test Range (AFWTR). Debris objects in space refer to the collection of defunct objects orbiting the Earth. Examples of debris include non-operational satellites, rocket bodies, and fragments generated from explosions, collisions, or faulty payload assembly.

Loading next visibility...
Identifier
42339, 2000-055QF
Orbit
SSO
Country
Flag of USUS
Related business
Manufacturer
Unknown
Mission
Spacecraft
Bus & Motor
Unknown
Mass
Unknown
Launch date (UTC)
2000-09-21 (25 years ago)
Launch vehicle
Unknown
Launch site
Air Force Western Test Range (AFWTR)
Object type
Payload
Rocket body
Debris
Shape & HBR
Unknown shape, 0.1 m
Radar Cross Section
Small (<0.1 m²)

Expand to show TLE details & history
Last TLE update: 5 days ago

TLE from 5 days ago
0 NOAA 16 DEB
1 42339U 00055QF  25282.33776282  .00005700  00000-0  18496-2 0  9990
2 42339  99.0950 131.2006 0017801 316.9067  43.0725 14.39224983491377
Epoch: 2025-10-09T08:06Z
TLE epoch observation values (Epoch: 2025-10-09T08:06:22.707Z)
Latitude
0.00002°
Longitude
-8.59341°
Altitude
754.714 km
Speed
7.482 km/s
True Right ascension
08h 44m 48s
True Declination
0° 00' 00"
Sunlit
Object was in daylight at epoch
Visualization orbit readout
Latitude
Unknown
Longitude
Unknown
Altitude
Unknown
Speed
Unknown
Apparent Right ascension
Unknown
Apparent Declination
Unknown
Sunlit
N/A
Visualization observer readout
Local Sidereal Time
06:22:43
Azimuth
Unknown
Elevation
Unknown
Doppler factor
Unknown
Orbital elements
Apogee altitude
770.916 km
Perigee altitude
745.509 km
Semi-major axis
7,136.349 km
Eccentricity
0.00178
Inclination
99.095°
RAAN
131.2006°
Arg. of periapsis
316.9067°
True anomaly
43.21203°
Mean anomaly
43.0725°
Eccentric anomaly
43.14224°
Mean motion
3.60022 °/min
Orbital period
99.99 mins
BSTAR
0.0018496
Loading maneuver chart data...
Computing Atmospheric mass density...
Loading historical data...
Loading historical data...
Loading historical data...
Loading historical data...
Loading historical data...
Loading historical data...
Loading historical data...

Documentation

Showing up to 5 results
|